H-2A DEB, 38346

Orbit data source: Space-Track

H-2A DEB, 38346 is space debris in LEO originally from a launch on Thu, 17 May 2012 UTC launched from the Tanegashima Space Center (TNSTA). Debris objects in space refer to the collection of defunct objects orbiting the Earth. Examples of debris include non-operational satellites, rocket bodies, and fragments generated from explosions, collisions, or faulty payload assembly.

Not visible in the next 10 days
Identifier
38346, 2012-025G
Orbit
LEO
Country
Flag of JPJP / JPN
Related business
Manufacturer
Kawasaki
Mission
Spacecraft
Bus & Motor
Unknown
Mass
~200 kg wet, ~200 kg dry
Launch date (UTC)
2012-05-17 (13 years ago)
Launch vehicle
Unknown
Launch site
Tanegashima Space Center (TNSTA)
Object type
Payload
Rocket body
Debris
Shape & HBR
Half Cyl, 2.0 m
Radar Cross Section
13.425 m², Large (>1 m²)

Expand to show TLE details & history
Last TLE update: 2 hours ago

TLE from 2 hours ago
0 H-2A DEB
1 38346U 12025G   25309.51597582  .07413731  29181-5  34125-2 0  9994
2 38346  98.2291 141.4290 0006947 304.9064  55.1569 16.21821935730054
Epoch: 2025-11-05T12:23Z
TLE epoch observation values (Epoch: 2025-11-05T12:23:00.310Z)
Latitude
-0.00013°
Longitude
-89.3098°
Altitude
215.196 km
Speed
7.779 km/s
True Right ascension
09h 25m 42s
True Declination
0° 00' 00"
Sunlit
Object was in daylight at epoch
Visualization orbit readout
Latitude
Unknown
Longitude
Unknown
Altitude
Unknown
Speed
Unknown
Apparent Right ascension
Unknown
Apparent Declination
Unknown
Sunlit
N/A
Visualization observer readout
Local Sidereal Time
10:13:36
Azimuth
Unknown
Elevation
Unknown
Doppler factor
Unknown
Orbital elements
Apogee altitude
216.058 km
Perigee altitude
206.902 km
Semi-major axis
6,589.617 km
Eccentricity
0.00069
Inclination
98.2291°
RAAN
141.429°
Arg. of periapsis
304.9064°
True anomaly
55.22227°
Mean anomaly
55.1569°
Eccentric anomaly
55.18958°
Mean motion
4.05745 °/min
Orbital period
88.73 mins
BSTAR
0.0034125
Loading maneuver chart data...
Computing Atmospheric mass density...
Loading historical data...
Loading historical data...
Loading historical data...
Loading historical data...
Loading historical data...
Loading historical data...
Loading historical data...

Documentation

Showing up to 5 results
|